{"data":{"norad_id":48225,"intl_designator":"2021-031R","name":"ONEWEB-0204","alt_names":[],"object_type":"PAYLOAD","status":"ACTIVE","operator":null,"country":"UK","launch_date":"2021-04-25","launch_site_code":"VOSTO","launch_vehicle":null,"mission":null,"orbit_class":"UNKNOWN","rcs_meters":null,"size_class":null,"mass_kg":null,"dimensions":null,"purposes":["comms"],"wikipedia_slug":null,"has_3d_model":false,"image_url":null,"decayed_at":null,"tle_current":{"epoch":"2026-09-20T00:06:33.761952Z","epoch_age_seconds":68600,"freshness":"FRESH","line1":"1 48225U 21031R   26263.00455743  .00000187  00000+0  46903-3 0  9995","line2":"2 48225  87.8897 270.7927 0002151  98.6905 261.4469 13.14503396260713","mean_motion":13.14503396,"eccentricity":0.0002151,"inclination_deg":87.8897,"raan_deg":270.7927,"arg_perigee_deg":98.6905,"mean_anomaly_deg":261.4469,"bstar":0.00046903,"rev_number":26071,"period_min":109.54707339531,"perigee_km":1204.1567599784,"apogee_km":1207.4193645402,"semimajor_km":7583.9250622593,"source":"CELESTRAK","updated_at":"2026-09-20T09:00:44.595255Z"}}}